Fairfield, OH

5:40 AM EST on February 24, 2017 (GMT -0500)
Butler County Regional

Weather History for KHAO - January, 2013

Change the Weather History Date:

Thursday, January 24, 2013

  Actual Average (KLUK) Record (KLUK)
Temperature  
Mean Temperature 20 °F -  
Max Temperature 24 °F 41 °F 70 °F (1967)
Min Temperature 15 °F 22 °F -15 °F (1963)
Degree Days  
Heating Degree Days 46    
Moisture  
Dew Point 5 °F    
Average Humidity 52    
Maximum Humidity 64    
Minimum Humidity 34    
Precipitation  
Precipitation 0.00 in - - ()
Sea Level Pressure  
Sea Level Pressure 30.50 in    
Wind  
Wind Speed 9 mph (NNE)    
Max Wind Speed 20 mph    
Max Gust Speed 29 mph    
Visibility 10 miles    
Events      
Averages and records for this station are not official NWS values.
T = Trace of Precipitation, MM = Missing Value Source: NWS Daily Summary

Daily Weather History Graph

Daily Weather History Graph

Search for Another Location

Airport or City:

Trip Planner

Search our weather history database for the weather conditions in past years. The results will help you decide how hot, cold, wet, or windy it might be!

Date:

Astronomy

Jan. 24, 2013 Rise Set
Actual Time 7:51 AM EST 5:49 PM EST
Civil Twilight 7:22 AM EST 6:18 PM EST
Nautical Twilight 6:50 AM EST 6:50 PM EST
Astronomical Twilight 6:18 AM EST 7:22 PM EST
Moon 3:51 PM EST 5:48 AM EST
Length of Visible Light 10h 55m
Length of Day
9h 58m
Waxing Gibbous, 94% of the Moon is Illuminated
Jan 24
Waxing Gibbous
Jan 26
Full
Feb 3
Last Quarter
Feb 10
New
Feb 17
First Quarter

Hourly Weather History & Observations

Time (EST) Temp. Windchill Dew Point Humidity Pressure Visibility Wind Dir Wind Speed Gust Speed Precip Events Conditions
12:53 AM 21.9 °F 14.5 °F 8.1 °F 55% 30.18 in 10.0 mi NNW 5.8 mph - N/A   Overcast
1:53 AM 23.0 °F 8.3 °F 10.9 °F 60% 30.22 in 10.0 mi NW 19.6 mph 28.8 mph N/A   Overcast
2:53 AM 21.0 °F 7.6 °F 7.0 °F 55% 30.28 in 10.0 mi NW 15.0 mph - N/A   Clear
3:53 AM 19.9 °F 6.2 °F 9.0 °F 62% 30.34 in 10.0 mi NNW 15.0 mph 25.3 mph N/A   Mostly Cloudy
4:53 AM 18.0 °F 6.9 °F 6.1 °F 60% 30.38 in 10.0 mi NNW 9.2 mph - N/A   Clear
5:53 AM 16.0 °F 5.3 °F 5.0 °F 62% 30.41 in 10.0 mi NNW 8.1 mph - N/A   Clear
6:53 AM 15.1 °F 6.4 °F 5.0 °F 64% 30.46 in 10.0 mi NNW 5.8 mph - N/A   Clear
7:53 AM 15.1 °F 5.2 °F 5.0 °F 64% 30.51 in 10.0 mi NNW 6.9 mph - N/A   Clear
8:53 AM 15.1 °F 5.2 °F 5.0 °F 64% 30.53 in 10.0 mi North 6.9 mph - N/A   Clear
9:53 AM 18.0 °F 7.7 °F 5.0 °F 57% 30.59 in 10.0 mi NNE 8.1 mph - N/A   Clear
10:53 AM 19.0 °F 9.0 °F 3.9 °F 52% 30.63 in 10.0 mi NNE 8.1 mph - N/A   Clear
11:53 AM 21.0 °F 11.4 °F 1.9 °F 44% 30.64 in 10.0 mi NE 8.1 mph - N/A   Clear
12:53 PM 23.0 °F 13.9 °F -0.0 °F 37% 30.61 in 10.0 mi NE 8.1 mph - N/A   Clear
1:53 PM 24.1 °F 14.4 °F 1.0 °F 37% 30.58 in 10.0 mi NE 9.2 mph - N/A   Clear
2:53 PM 24.1 °F - -0.0 °F 35% 30.57 in 10.0 mi Calm Calm - N/A   Clear
3:53 PM 24.1 °F - -0.9 °F 34% 30.57 in 10.0 mi Calm Calm - N/A   Clear
4:53 PM 23.0 °F - -0.0 °F 37% 30.57 in 10.0 mi Calm Calm - N/A   Clear
5:53 PM 21.0 °F 14.6 °F 1.0 °F 42% 30.58 in 10.0 mi ENE 4.6 mph - N/A   Clear
6:53 PM 19.0 °F 11.1 °F 1.9 °F 47% 30.58 in 10.0 mi ENE 5.8 mph - N/A   Clear
7:53 PM 19.0 °F 11.1 °F 5.0 °F 54% 30.58 in 10.0 mi East 5.8 mph - N/A   Clear
8:53 PM 19.9 °F 9.3 °F 7.0 °F 57% 30.54 in 10.0 mi East 9.2 mph - N/A   Clear
9:53 PM 19.9 °F 12.1 °F 8.1 °F 60% 30.53 in 10.0 mi East 5.8 mph - N/A   Clear
10:53 PM 19.9 °F 14.9 °F 7.0 °F 57% 30.53 in 10.0 mi SE 3.5 mph - N/A   Clear
11:53 PM 19.9 °F 10.1 °F 7.0 °F 57% 30.49 in 10.0 mi ESE 8.1 mph - N/A   Clear